Location: Rooftop Observatory
(39.0308°N, 87.1711°W)
Time: 04:23:16
(UTC-05:00)

Daily predictions for brighter satellites

Satellite Brightness Start Highest point End
(mag) Time Altitude Azimuth Time Altitude Azimuth Time Altitude Azimuth
SL-16 R/B 4.3 02:33:25 26° NNE 02:33:25 26° NNE 02:36:21 10° N
Cosmos 2322 Rocket 4.2 02:58:56 24° NNE 02:58:56 24° NNE 03:01:05 10° NNE
SL-16 R/B 4.1 03:04:10 26° NNE 03:04:10 26° NNE 03:06:34 10° NNE
Resurs 1-4 Rocket 4.1 03:06:10 10° NNE 03:08:11 24° NNE 03:08:11 24° NNE
CZ-2D R/B 4.0 03:08:19 10° NNE 03:10:47 27° NNE 03:10:47 27° NNE
FALCON 9 R/B 4.1 03:17:39 68° SSW 03:18:48 71° S 03:56:15 10° ESE
Cosmos 2360 Rocket 3.4 03:27:51 37° ENE 03:27:51 37° ENE 03:31:39 10° NE
Cosmos 1980 Rocket 4.4 03:30:15 17° NNW 03:30:15 17° NNW 03:31:56 10° N
ADEOS Rocket 3.8 03:33:45 10° NNE 03:37:11 40° NNE 03:37:11 40° NNE
CENTAUR R/B 3.8 03:43:40 31° NNW 03:43:40 31° NNW 03:48:47 10° NNE
USA 215 4.3 03:43:38 10° E 03:49:43 42° NNE 03:55:47 10° NW
Cosmos 2322 3.8 04:04:46 74° NE 04:04:46 74° NE 04:09:58 10° NNE
Cosmos 2327 Rocket 4.5 04:05:15 10° N 04:11:33 78° E 04:13:53 41° SSE
Meteor 1-18 Rocket 4.1 04:12:25 82° NNE 04:12:25 82° NNE 04:17:46 10° N
SL-16 R/B 4.4 04:18:29 16° NW 04:18:29 16° NW 04:19:50 10° NW
ARIANE 5 R/B 4.3 04:12:16 10° N 04:14:22 21° NNW 04:14:22 21° NNW
Nadezhda 1 Rocket 4.0 04:16:39 48° SSE 04:18:26 75° E 04:24:29 10° N
Meteor 1-12 Rocket 4.3 04:13:47 10° N 04:19:28 77° E 04:22:22 30° SSE
Meteor 2-13 Rocket 4.5 04:16:00 10° N 04:22:12 78° E 04:27:43 13° SSE
Cosmos 1570 Rocket 4.1 04:24:16 63° SSE 04:24:56 72° ESE 04:30:09 10° NNE
Tiangong 2 3.3 04:34:35 25° E 04:34:35 25° E 04:36:04 10° E
MOS 1 Rocket 3.3 04:29:29 10° N 04:33:35 62° NNW 04:33:35 62° NNW
Cosmos 2074 Rocket 3.9 04:28:19 10° NNW 04:34:29 63° W 04:35:49 51° SW
CZ-4B R/B 3.7 04:28:57 10° NNE 04:34:31 59° E 04:38:17 20° S
MOS 1-B 4.3 04:30:38 10° N 04:36:23 63° WNW 04:37:10 57° WSW
Cosmos 2322 Rocket 3.9 04:40:45 17° NW 04:40:45 17° NW 04:43:46 10° N
Cosmos 1238 Rocket 3.7 04:42:00 34° NE 04:42:00 34° NE 04:44:01 10° NNE
IRS-1C Rocket 4.2 04:38:12 10° NNE 04:43:29 75° ESE 04:46:22 27° S
ERS-2 4.4 04:41:56 10° NE 04:45:01 24° E 04:48:04 10° SSE
Cosmos 1975 4.4 04:41:12 10° NNW 04:42:58 24° NNW 04:42:58 24° NNW
SL-16 R/B 4.0 04:46:02 16° NW 04:46:02 16° NW 04:49:10 10° NNW
IRAS Rocket 4.5 04:42:16 10° NNE 04:47:49 69° ESE 04:52:15 16° S
Cosmos 2237 4.3 04:48:29 48° WSW 04:49:45 60° WNW 04:55:27 10° NNE
Resurs 1-4 Rocket 4.1 04:47:41 10° NNW 04:49:17 14° NW 04:49:17 14° NW
CZ-2C R/B 4.0 04:46:57 10° SSE 04:51:30 68° ENE 04:56:01 10° N
Cosmos 2219 Rocket 2.5 04:48:29 21° S 04:52:10 63° ESE 04:57:41 10° NNE
Okean O Rocket 1.5 04:48:44 10° N 04:53:11 71° WNW 04:54:01 55° SW
CZ-2D R/B 4.0 04:50:02 10° NNW 04:52:07 15° NW 04:52:07 15° NW
PSLV R/B 4.4 04:50:08 10° N 04:52:53 40° NNW 04:52:53 40° NNW
COSMOS 2428 2.6 04:51:56 42° SW 04:53:51 71° WNW 04:59:32 10° NNE
Cosmos 1025 Rocket 4.4 04:53:31 10° SSE 04:57:35 40° E 05:01:43 10° NNE
Cosmos 1844 Rocket 2.7 04:55:10 10° NNW 05:00:47 84° ENE 05:06:21 10° SSE
Lacrosse 4 Rocket 2.7 05:03:24 26° S 05:03:24 26° S 05:05:31 10° S
DELTA 2 R/B (1) 3.5 05:02:43 38° W 05:04:55 89° S 05:10:29 10° E
Cosmos 1455 Rocket 4.4 05:01:36 10° NNW 05:03:47 24° NW 05:03:47 24° NW
Okean-O 3.8 05:02:40 10° NNE 05:06:53 42° E 05:11:05 10° S
Cosmos 2360 Rocket 3.3 05:09:37 24° WNW 05:10:28 24° NW 05:15:03 10° N
Cosmos 2285 Rocket 4.3 05:05:15 10° S 05:11:39 73° ESE 05:18:04 10° NNE
ADEOS II 2.1 05:09:58 10° N 05:15:07 57° WNW 05:18:42 20° SW
Meteor 1-19 Rocket 4.1 05:10:56 12° SSW 05:16:08 71° W 05:21:51 10° N
Cosmos 2278 Rocket 3.3 05:10:50 10° NNW 05:16:18 47° ENE 05:21:44 10° SE
Cosmos 1814 Rocket 4.5 05:13:29 10° S 05:18:36 61° ESE 05:23:42 10° NNE
Gblst 52 Del rocket 4.3 05:14:40 13° WNW 05:19:49 69° SW 05:26:15 10° SE
Cosmos 2237 Rocket 2.7 05:14:30 10° S 05:20:05 63° ESE 05:25:43 10° NNE
Cosmos 1295 Rocket 4.4 05:16:44 10° N 05:22:59 88° W 05:29:08 10° S
Aureole 2 Rocket 3.0 05:20:07 10° S 05:23:46 57° ESE 05:27:06 10° NNE
Meteor 2-19 Rocket 4.3 05:19:40 10° N 05:25:46 81° W 05:31:49 10° S
Meteor 2-4 Rocket 3.6 05:21:00 10° SSW 05:26:36 80° W 05:32:06 10° N
Cosmos 405 Rocket 3.2 05:23:45 10° S 05:27:47 67° E 05:31:47 10° NNE
Cosmos 962 Rocket 4.5 05:22:34 10° NNW 05:28:45 63° W 05:35:00 10° S
Cosmos 1666 2.6 05:25:49 10° NNW 05:29:40 63° W 05:33:29 10° S
ATLAS 5 CENTAUR R/B 2.9 05:23:41 10° NNW 05:29:41 64° NE 05:36:10 10° SE
Okean 2 3.7 05:27:23 10° S 05:31:31 70° E 05:35:41 10° NNE
USA 215 3.3 05:26:03 10° SSE 05:32:30 61° SW 05:39:00 10° NW
CZ-3A R/B 0.8 05:35:49 23° N 05:35:49 23° N 05:36:45 10° NNE
Cosmos 1743 3.5 05:33:41 10° NNW 05:37:02 29° W 05:40:21 10° SSW
Cosmos 2333 Rocket 2.2 05:35:55 10° SSW 05:41:33 65° WNW 05:47:17 10° NNE
CZ-4B R/B 4.3 05:41:35 10° NNW 05:43:50 16° WNW 05:44:13 16° WNW
USA 229 DEB 3.8 05:38:14 13° SW 05:44:19 60° NW 05:51:12 10° NNE
CZ-4B R/B 4.1 05:39:49 10° N 05:44:20 71° WNW 05:48:46 10° SSW
USA 229 3.8 05:38:19 13° SW 05:44:24 61° NW 05:51:18 10° NNE
Cosmos 2058 Rocket 4.2 05:40:30 10° N 05:44:51 49° E 05:49:09 10° SSE
Cosmos 1867 3.6 05:39:27 10° NNW 05:44:57 89° ENE 05:50:22 10° SSE
Meteor 1-31 Rocket 2.8 05:42:52 10° N 05:46:36 58° WNW 05:50:21 10° SSW
Feng Yun 1-1 Rocket 4.3 05:43:32 10° N 05:49:23 75° WNW 05:55:04 10° SSW
Okean 1-7 Rocket 4.1 05:46:45 10° SSW 05:50:58 38° WNW 05:55:09 10° N
NOSS 3-1 (A) 4.1 05:51:08 10° SSW 05:56:41 54° ESE 06:02:50 10° NE
OTV 4 2.4 05:56:39 10° SSW 05:58:46 20° SSE 06:00:53 10° ESE
NOSS 3-1 (C) 3.5 05:53:31 10° SSW 05:59:13 78° ESE 06:05:35 10° NE
Thor Agena Rocket 3.4 05:54:39 10° S 05:59:41 71° WSW 06:04:44 10° NNW
Cosmos 1606 Rocket 3.6 05:58:22 10° NNW 06:02:47 61° W 06:07:11 10° S
Cosmos 990 Rocket 3.9 05:58:22 10° NNW 06:03:34 77° WSW 06:08:41 10° SSE
Hubble Space Telescope 3.0 06:01:16 10° SSW 06:03:43 15° S 06:06:10 10° SE
Cosmos 2150 Rocket 4.1 05:59:27 10° NNW 06:04:39 56° WSW 06:09:53 10° S
SL-8 Rocket 4.1 05:58:52 10° NNW 06:04:52 53° W 06:10:49 10° SSW
Iridium 2 4.2 06:05:08 10° NNW 06:08:43 39° W 06:12:18 10° SSW
Cosmos 1844 4.3 06:04:01 10° NW 06:09:07 34° WSW 06:14:09 10° SSW
Tiangong 2 2.1 06:06:42 10° W 06:09:28 29° SSW 06:12:13 10° SSE
Cosmos 1898 Rocket 4.0 06:05:41 10° NW 06:10:24 37° W 06:15:06 10° SSW
GPS 2-04 Rocket1 3.6 06:11:16 10° WSW 06:14:57 39° SSE 06:18:28 10° E
SL-16 R/B 2.4 06:10:56 10° SSW 06:16:34 78° ESE 06:22:16 10° NNE
ERS-2 3.6 06:15:51 10° NNW 06:18:35 20° WNW 06:21:17 10° WSW
Ariane Rocket 3.8 06:15:56 10° NNE 06:20:56 59° ESE 06:25:54 10° S
VEP-3 4.4 06:16:20 10° WSW 06:25:22 26° S 06:30:05 10° SE
